Morris, MN

12:10 PM CDT on June 29, 2017 (GMT -0500)
Morris Municipal

Weather History for KMOX - June, 2013

Change the Weather History Date:

Friday, June 7, 2013

  Actual Average Record
Temperature  
Mean Temperature 56 °F -  
Max Temperature 69 °F 71 °F 93 °F (2011)
Min Temperature 44 °F 51 °F 35 °F (1998)
Degree Days  
Heating Degree Days 8    
Growing Degree Days 6 (Base 50)    
Moisture  
Dew Point 48 °F    
Average Humidity 70    
Maximum Humidity 100    
Minimum Humidity 43    
Precipitation  
Precipitation 0.00 in - - ()
Sea Level Pressure  
Sea Level Pressure 29.98 in    
Wind  
Wind Speed 3 mph (SE)    
Max Wind Speed 15 mph    
Max Gust Speed 17 mph    
Visibility 8 miles    
Events Fog    
Averages and records for this station are not official NWS values.
T = Trace of Precipitation, MM = Missing Value Source: NWS Daily Summary

Daily Weather History Graph

Daily Weather History Graph

Search for Another Location

Airport or City:

Trip Planner

Search our weather history database for the weather conditions in past years. The results will help you decide how hot, cold, wet, or windy it might be!

Date:

Astronomy

Jun. 07, 2013 Rise Set
Actual Time 5:35 AM CDT 9:10 PM CDT
Civil Twilight 4:58 AM CDT 9:48 PM CDT
Nautical Twilight 4:08 AM CDT 10:38 PM CDT
Astronomical Twilight 3:02 AM CDT 11:44 PM CDT
Moon 5:02 AM CDT (6/7) 8:22 PM CDT (6/7)
Length of Visible Light 16h 50m
Length of Day
15h 34m
Waning Crescent, 1% of the Moon is Illuminated
Jun 7
Waning Crescent
Jun 8
New
Jun 16
First Quarter
Jun 23
Full
Jun 29
Last Quarter

Hourly Weather History & Observations

Time (CDT) Temp. Dew Point Humidity Pressure Visibility Wind Dir Wind Speed Gust Speed Precip Events Conditions
12:11 AM 51.8 °F 48.2 °F 88% 30.05 in 10.0 mi Calm Calm - N/A   Clear
12:31 AM 51.8 °F 50.0 °F 94% 30.04 in 10.0 mi Calm Calm - N/A   Clear
12:51 AM 50.0 °F 48.2 °F 94% 30.04 in 10.0 mi Calm Calm - N/A   Clear
1:11 AM 50.0 °F 48.2 °F 94% 30.04 in 10.0 mi Calm Calm - N/A   Clear
1:31 AM 50.0 °F 48.2 °F 94% 30.04 in 10.0 mi Calm Calm - N/A   Clear
1:51 AM 48.2 °F 48.2 °F 100% 30.04 in 7.0 mi Calm Calm - N/A   Clear
2:11 AM 48.2 °F 48.2 °F 100% 30.04 in 4.0 mi Calm Calm - N/A   Clear
2:31 AM 48.2 °F 48.2 °F 100% 30.04 in 7.0 mi Calm Calm - N/A   Clear
2:51 AM 48.2 °F 48.2 °F 100% 30.03 in 1.2 mi Calm Calm - N/A   Mist
3:11 AM 48.2 °F 46.4 °F 93% 30.03 in 0.5 mi Calm Calm - N/A Fog Fog
3:31 AM 46.4 °F 46.4 °F 100% 30.03 in 1.0 mi Calm Calm - N/A   Mist
3:51 AM 48.2 °F 46.4 °F 93% 30.03 in 2.5 mi Calm Calm - N/A   Clear
4:11 AM 46.4 °F 46.4 °F 100% 30.03 in 0.5 mi Calm Calm - N/A Fog Fog
4:31 AM 44.6 °F 44.6 °F 100% 30.03 in 0.5 mi Calm Calm - N/A Fog Fog
4:51 AM 46.4 °F 44.6 °F 93% 30.03 in 0.8 mi Calm Calm - N/A   Mostly Cloudy
5:11 AM 46.4 °F 46.4 °F 100% 30.03 in 1.0 mi Calm Calm - N/A   Mist
5:31 AM 46.4 °F 46.4 °F 100% 30.03 in 5.0 mi Calm Calm - N/A   Clear
5:51 AM 44.6 °F 44.6 °F 100% 30.04 in 0.2 mi Calm Calm - N/A Fog Fog
6:11 AM 46.4 °F 44.6 °F 93% 30.04 in 0.5 mi Calm Calm - N/A Fog Fog
6:31 AM 46.4 °F 44.6 °F 93% 30.04 in 1.5 mi Calm Calm - N/A   Mostly Cloudy
6:51 AM 48.2 °F 48.2 °F 100% 30.05 in 5.0 mi Calm Calm - N/A   Clear
7:11 AM 51.8 °F 51.8 °F 100% 30.05 in 10.0 mi Calm Calm - N/A   Scattered Clouds
7:31 AM 53.6 °F 51.8 °F 94% 30.05 in 10.0 mi Calm Calm - N/A   Mostly Cloudy
7:51 AM 55.4 °F 51.8 °F 88% 30.04 in 10.0 mi Calm Calm - N/A   Scattered Clouds
8:11 AM 55.4 °F 51.8 °F 88% 30.04 in 10.0 mi Calm Calm - N/A   Clear
8:31 AM 55.4 °F 50.0 °F 82% 30.04 in 10.0 mi Calm Calm - N/A   Clear
8:51 AM 57.2 °F 50.0 °F 77% 30.04 in 10.0 mi Calm Calm - N/A   Clear
9:11 AM 59.0 °F 48.2 °F 67% 30.05 in 10.0 mi Calm Calm - N/A   Clear
9:31 AM 60.8 °F 48.2 °F 63% 30.04 in 10.0 mi Calm Calm - N/A   Clear
9:51 AM 60.8 °F 48.2 °F 63% 30.04 in 10.0 mi SE 3.5 mph - N/A   Clear
10:11 AM 60.8 °F 48.2 °F 63% 30.03 in 10.0 mi South 3.5 mph - N/A   Clear
10:31 AM 62.6 °F 48.2 °F 59% 30.02 in 10.0 mi East 6.9 mph - N/A   Scattered Clouds
10:51 AM 62.6 °F 48.2 °F 59% 30.02 in 10.0 mi ESE 5.8 mph - N/A   Mostly Cloudy
11:11 AM 62.6 °F 48.2 °F 59% 30.02 in 10.0 mi Calm Calm - N/A   Scattered Clouds
11:31 AM 64.4 °F 48.2 °F 56% 30.01 in 10.0 mi ESE 5.8 mph - N/A   Scattered Clouds
11:51 AM 64.4 °F 48.2 °F 56% 30.01 in 10.0 mi ENE 5.8 mph - N/A   Mostly Cloudy
12:11 PM 64.4 °F 48.2 °F 56% 30.00 in 10.0 mi SE 4.6 mph - N/A   Scattered Clouds
12:31 PM 64.4 °F 48.2 °F 56% 30.00 in 10.0 mi SE 9.2 mph - N/A   Mostly Cloudy
12:51 PM 64.4 °F 46.4 °F 52% 30.00 in 10.0 mi SSE 5.8 mph - N/A   Overcast
1:11 PM 64.4 °F 48.2 °F 56% 30.00 in 10.0 mi ESE 6.9 mph - N/A   Overcast
1:31 PM 66.2 °F 48.2 °F 52% 29.99 in 10.0 mi ESE 9.2 mph - N/A   Mostly Cloudy
1:51 PM 66.2 °F 48.2 °F 52% 29.98 in 10.0 mi SSW 4.6 mph - N/A   Scattered Clouds
2:11 PM 66.2 °F 48.2 °F 52% 29.97 in 10.0 mi SSE 10.4 mph 17.3 mph N/A   Scattered Clouds
2:31 PM 68.0 °F 48.2 °F 49% 29.96 in 10.0 mi East 8.1 mph - N/A   Scattered Clouds
2:51 PM 66.2 °F 48.2 °F 52% 29.96 in 10.0 mi ESE 8.1 mph - N/A   Mostly Cloudy
3:11 PM 66.2 °F 48.2 °F 52% 29.96 in 10.0 mi SSE 8.1 mph - N/A   Overcast
3:31 PM 66.2 °F 46.4 °F 49% 29.96 in 10.0 mi SE 4.6 mph - N/A   Overcast
3:51 PM 66.2 °F 46.4 °F 49% 29.95 in 10.0 mi ESE 3.5 mph - N/A   Mostly Cloudy
4:11 PM 69.8 °F 48.2 °F 46% 29.94 in 10.0 mi South 3.5 mph - N/A   Mostly Cloudy
4:31 PM 68.0 °F 46.4 °F 46% 29.94 in 10.0 mi South 3.5 mph - N/A   Scattered Clouds
4:51 PM 66.2 °F 46.4 °F 49% 29.93 in 10.0 mi SE 3.5 mph - N/A   Scattered Clouds
5:11 PM 68.0 °F 46.4 °F 46% 29.92 in 10.0 mi SSE 3.5 mph - N/A   Scattered Clouds
5:31 PM 68.0 °F 46.4 °F 46% 29.92 in 10.0 mi Calm Calm - N/A   Mostly Cloudy
5:51 PM 68.0 °F 44.6 °F 43% 29.91 in 10.0 mi SSE 5.8 mph - N/A   Scattered Clouds
6:11 PM 69.8 °F 46.4 °F 43% 29.91 in 10.0 mi ESE 6.9 mph - N/A   Scattered Clouds
6:31 PM 69.8 °F 46.4 °F 43% 29.90 in 10.0 mi South 5.8 mph - N/A   Mostly Cloudy
6:51 PM 69.8 °F 46.4 °F 43% 29.89 in 10.0 mi SE 11.5 mph - N/A   Scattered Clouds
7:11 PM 69.8 °F 46.4 °F 43% 29.89 in 10.0 mi SE 9.2 mph - N/A   Clear
7:31 PM 68.0 °F 46.4 °F 46% 29.89 in 10.0 mi SE 15.0 mph - N/A   Clear
7:51 PM 66.2 °F 48.2 °F 52% 29.89 in 10.0 mi ESE 11.5 mph - N/A   Clear
8:11 PM 64.4 °F 48.2 °F 56% 29.90 in 10.0 mi SE 9.2 mph - N/A   Clear
8:31 PM 64.4 °F 48.2 °F 56% 29.90 in 10.0 mi ESE 9.2 mph - N/A   Clear
8:51 PM 64.4 °F 48.2 °F 56% 29.89 in 10.0 mi ESE 10.4 mph - N/A   Clear
9:11 PM 62.6 °F 50.0 °F 63% 29.90 in 10.0 mi SE 10.4 mph - N/A   Clear
9:31 PM 62.6 °F 50.0 °F 63% 29.89 in 10.0 mi SE 9.2 mph - N/A   Clear
9:51 PM 62.6 °F 50.0 °F 63% 29.89 in 10.0 mi SE 10.4 mph - N/A   Clear
10:11 PM 62.6 °F 50.0 °F 63% 29.90 in 10.0 mi ESE 9.2 mph - N/A   Clear
10:31 PM 60.8 °F 50.0 °F 68% 29.89 in 10.0 mi ESE 10.4 mph - N/A   Clear
10:51 PM 60.8 °F 50.0 °F 68% 29.89 in 10.0 mi ESE 9.2 mph - N/A   Clear
11:11 PM 60.8 °F 50.0 °F 68% 29.89 in 10.0 mi ESE 10.4 mph - N/A   Scattered Clouds
11:31 PM 60.8 °F 50.0 °F 68% 29.89 in 10.0 mi ESE 8.1 mph - N/A   Clear
11:51 PM 59.0 °F 50.0 °F 72% 29.89 in 10.0 mi SE 9.2 mph - N/A   Clear